Vertical_Velocity
-1 -1 -0 -0 -1 -1 -1 -0 0 0 -1 -1 -1 -1 -0 -0 -0 -0 -0 -0 -0 -0 -0 -0 0 0 0 0 0 -0 -0 -0 -0 0 0 -0 -0 -0 -0 -0 0 0 0 0 1 1 1 1 0 -0 -0 -0 -0 0 0 0 0 0 -0 -0 -0 -1 -1 -1 -1 -0 0 -0 -0 -0 -1 -1 -1 -0 0 0 0 -0 -1 -1 -1 -1 -1 -1 -0 0 1 0 -0 -0 0 0 -0 0 0 0 -0 -1 -0 -1 -1 -1 -0
-1 -1 -1 -1 -1 -1 -1 -1 0 0 -1 -1 -1 -0 -0 -0 -0 -0 -0 -0 -0 -0 -0 -0 -0 -0 -0 -0 -0 -0 -0 -0 -0 -0 -0 -0 -0 -1 -0 -0 -0 -0 -0 0 0 1 1 1 1 1 0 0 0 0 0 0 0 0 0 -0 -0 -0 -0 -1 -0 -0 0 0 0 -0 -1 -1 -1 -0 0 0 -0 -0 -1 -1 -0 -0 -0 -0 0 0 1 1 0 -0 0 -0 0 0 0 0 -0 -0 -0 -0 -0 -0 -0
-1 -1 -1 -1 -1 -1 -1 -1 -0 -0 -1 -1 -1 -0 -0 -0 -0 -0 -0 -0 -0 -0 -0 -0 -0 -0 -0 -0 -0 -1 -1 -1 -1 -0 -1 -1 -1 -1 -1 -1 -1 -1 -1 -0 0 0 1 1 1 1 1 1 1 0 0 0 0 0 0 0 0 0 -0 -0 -0 -0 0 1 0 -0 -1 -1 -1 -1 -0 -0 -0 -1 -1 -1 -1 -1 -0 -0 -0 0 0 0 -0 -0 0 0 0 0 0 -0 0 0 0 0 0 0 0
-1 -1 -1 -1 -1 -1 -1 -1 -1 -1 -1 -1 -1 -1 -0 -0 -0 -0 -0 -0 -0 -0 0 -0 -0 -0 0 -0 -0 -1 -1 -1 -1 -1 -1 -1 -1 -1 -1 -1 -1 -1 -1 -0 -0 0 0 1 1 1 1 1 1 0 0 0 0 0 0 0 0 0 0 0 -0 -0 0 0 0 -0 -0 -0 -0 -0 -0 -0 -0 -1 -1 -1 -1 -1 -0 -1 -1 -1 -0 -0 -0 -0 -0 -0 -0 0 0 -0 0 0 1 0 0 1 1
-1 -1 -1 -1 -1 -1 -2 -1 -1 -1 -1 -1 -1 -1 -1 -0 -0 -1 -1 -1 -1 -1 -0 -0 -0 -0 -0 -0 -0 -0 -1 -1 -1 -1 -1 -1 -1 -1 -1 -1 -1 -1 -1 -1 -1 -0 -0 0 0 0 0 0 0 0 0 0 -0 -0 -0 0 0 0 0 0 -0 -0 0 0 0 0 0 -0 -0 0 0 0 -0 -1 -1 -1 -1 -0 -0 -1 -1 -1 -1 -1 -1 -1 -0 -1 -0 -0 -0 -0 -0 -0 0 -0 0 0 1
-1 -1 -1 -1 -1 -1 -1 -1 -1 -1 -1 -1 -1 -1 -1 -1 -1 -1 -1 -1 -1 -1 -1 -1 -1 -1 -1 -1 -1 -1 -1 -1 -1 -1 -1 -1 -1 -1 -1 -1 -1 -1 -1 -1 -1 -1 -0 -0 -0 -0 -0 -0 -0 -0 -0 -0 -0 -0 -0 -0 -0 0 0 -0 -0 -0 0 0 0 0 0 -0 0 0 0 0 0 -1 -1 -1 -0 0 0 -1 -1 -1 -1 -1 -1 -1 -1 -1 -1 -1 -1 -1 -1 -1 -0 -0 -0 -0 0
-1 -1 -1 -1 -1 -1 -1 -2 -2 -1 -1 -1 -1 -1 -1 -1 -1 -1 -1 -1 -1 -1 -1 -1 -1 -1 -1 -1 -1 -1 -1 -1 -1 -1 -1 -1 -1 -1 -1 -1 -1 -1 -1 -1 -1 -1 -1 -0 -0 -0 -0 -1 -1 -1 -1 -1 -1 -1 -1 -1 -1 -0 -0 -1 -1 -1 -0 -0 -0 -0 -0 -0 -0 0 0 0 0 -1 -1 -0 -0 -0 -0 -0 -0 -1 -1 -1 -1 -1 -1 -1 -1 -1 -1 -1 -1 -1 -1 -0 -0 -1 -0
-1 -1 -1 -2 -2 -2 -1 -2 -1 -1 -1 -1 -1 -1 -1 -1 -1 -1 -1 -1 -1 -1 -1 -1 -1 -1 -1 -1 -1 -1 -1 -1 -1 -1 -1 -1 -1 -1 -1 -1 -1 -1 -1 -1 -1 -1 -1 -0 -0 -0 -0 -1 -1 -1 -1 -1 -1 -1 -1 -1 -0 -0 -1 -1 -1 -1 -1 -1 -1 -1 -1 -1 -1 -0 -0 0 -0 -1 -1 -0 -0 -0 -0 -0 -0 -0 -0 -1 -1 -1 -1 -1 -1 -1 -1 -1 -1 -1 -1 -0 -0 -1 -1
-1 -1 -1 -1 -1 -1 -1 -1 -1 -0 -1 -1 -1 -1 -1 -1 -1 -1 -1 -1 -1 -1 -1 -1 -1 -1 -1 -1 -1 -1 -1 -1 -1 -1 -1 -1 -1 -1 -1 -1 -1 -1 -1 -1 -1 -1 -1 -1 -0 -0 -0 -1 -1 -1 -0 -1 -1 -1 -1 -0 -0 -0 -1 -1 -1 -1 -1 -1 -1 -1 -1 -1 -1 -1 -1 -0 -0 -1 -1 -1 -1 -0 -0 -0 -0 -0 -0 -0 -1 -1 -1 -1 -1 -0 -0 -0 -1 -1 -0 -0 -0 -1 -1
-1 -1 -1 -1 -1 -1 -1 -1 -1 -1 -1 -1 -1 -1 -1 -1 -1 -1 -1 -1 -1 -1 -1 -1 -1 -1 -1 -1 -1 -1 -1 -1 -1 -1 -1 -1 -1 -1 -1 -1 -1 -1 -1 -1 -0 -1 -1 -1 -0 -0 -0 -0 -0 -0 -0 -1 -1 -1 -1 -0 -0 -0 -1 -1 -0 -0 -0 -0 -0 -1 -1 -1 -1 -1 -1 -1 -0 -0 -1 -1 -1 -1 -1 -1 -1 -0 -0 -1 -1 -1 -1 -0 -0 -0 -0 -0 -0 -0 -0 -0 -0 -0 -1
-1 -1 -1 -1 -1 -1 -1 -1 -1 -1 -0 -1 -1 -1 -1 -1 -1 -1 -1 -1 -1 -1 -1 -1 -1 -1 -1 -1 -1 -1 -1 -1 -1 -1 -1 -1 -1 -1 -1 -1 -1 -1 -1 -1 -1 -1 -1 -1 -1 -1 -1 -0 -0 -0 -0 -1 -1 -1 -1 -0 -0 -0 -0 -0 -1 -1 -0 -0 -0 -0 -0 -1 -1 -1 -1 -1 -0 -0 -0 -1 -1 -1 -1 -1 -1 -1 -0 -1 -1 -1 -1 -0 -0 -0 -0 -0 -0 -0 -0 -0 -0 -0 -0
-0 -0 -1 -1 -1 -1 -1 -0 -1 -1 -0 -1 -1 -1 -1 -1 -1 -1 -1 -1 -1 -1 -1 -1 -1 -1 -1 -1 -1 -1 -1 -1 -1 -1 -1 -1 -1 -1 -1 -1 -1 -1 -1 -1 -1 -1 -1 -1 -1 -1 -1 -1 -0 -0 -0 -1 -1 -1 -1 -0 -0 -0 -0 -0 -0 -0 -0 -0 -0 -0 -0 -1 -1 -1 -1 -1 -0 -0 0 -0 -0 -1 -1 -1 -1 -0 -0 -0 -1 -1 -1 -1 -1 -0 -0 -0 -0 -0 -0 -0 -0 -0 -0
-0 -0 -0 -0 -1 -1 -1 -0 -0 -0 -0 -0 -1 -1 -1 -1 -1 -1 -1 -1 -1 -1 -1 -1 -1 -1 -1 -1 -1 -1 -1 -1 -1 -1 -1 -1 -1 -1 -1 -1 -1 -1 -1 -1 -1 -1 -1 -1 -1 -1 -1 -1 -0 -0 -1 -1 -1 -1 -1 -0 -0 -1 -1 -0 0 -0 -0 -0 -0 -0 -0 -1 -1 -1 -1 -0 0 0 0 0 -0 -0 -0 -0 -0 -0 -0 -0 -0 -1 -1 -1 -1 -1 -1 -0 -0 -1 -1 -0 -0 -0 -0
-0 -0 -0 -0 -0 -0 -0 -0 -0 -0 -0 -0 -0 -0 -0 -0 -1 -1 -0 -0 -1 -1 -1 -1 -1 -1 -1 -1 -1 -1 -1 -1 -1 -1 -1 -1 -1 -1 -1 -1 -1 -1 -1 -1 -1 -1 -1 -1 -1 -1 -1 -1 -1 -1 -1 -1 -1 -1 -1 -1 -1 -1 -1 -1 -0 -0 -0 -0 -0 -0 -0 -0 -0 -0 -0 0 0 0 0 0 0 0 0 0 0 0 0 0 0 -0 -0 -0 -1 -1 -1 -1 -1 -1 -1 -1 -0 -0 -0
-0 -0 -0 -0 -0 -0 -0 -0 -0 -0 -0 -0 -0 -0 -0 -0 -0 -0 -0 -0 -0 -1 -1 -1 -0 -1 -1 -1 -1 -1 -1 -1 -1 -1 -1 -1 -1 -1 -1 -1 -1 -1 -1 -1 -1 -1 -1 -1 -1 -1 -1 -1 -1 -1 -1 -1 -1 -1 -1 -1 -1 -1 -1 -1 -1 -1 -0 -0 -0 -0 -1 -1 -0 -0 -0 0 0 0 0 0 -0 -0 -0 0 0 0 1 1 0 0 0 0 0 -0 -0 -0 -0 -0 -0 -0 -0 -0 -0
0 -0 -0 -0 -0 -0 -0 -0 -0 -0 -0 -0 -0 -0 -0 -1 -1 -0 -0 -0 -1 -0 -0 -0 -0 -0 -0 -1 -1 -1 -1 -1 -1 -1 -1 -1 -1 -1 -1 -1 -1 -1 -1 -1 -1 -1 -1 -1 -1 -1 -1 -1 -1 -1 -1 -1 -1 -1 -1 -1 -1 -2 -2 -1 -1 -1 -1 -1 -1 -1 -1 -1 -1 -0 -0 -0 0 0 0 0 -0 -0 -0 -0 0 0 0 1 1 0 0 0 0 0 0 0 0 0 0 0 0 0 -0
0 -0 -0 -0 -0 -0 -0 -0 -0 -0 -0 -0 -0 -1 -1 -1 -1 -0 -0 -0 -0 -0 -0 -0 -0 -0 -0 -0 -1 -1 -1 -1 -1 -1 -1 -1 -1 -1 -1 -1 -1 -1 -1 -1 -1 -1 -1 -1 -1 -1 -1 -1 -1 -1 -1 -1 -1 -1 -1 -1 -1 -1 -1 -1 -1 -1 -0 -0 -1 -1 -1 -1 -1 -1 -1 -0 -0 -0 -0 -0 -0 -0 0 -0 -0 0 0 0 0 0 0 0 0 0 1 0 0 1 1 1 1 1 1
0 -0 -0 -0 -0 -0 -0 -0 -0 -0 -0 -0 -0 -1 -0 -0 -0 -0 -0 -0 -0 -0 -0 -0 -0 -0 -0 -0 -0 -0 -0 -1 -1 -1 -1 -1 -1 -1 -1 -1 -1 -1 -1 -1 -1 -1 -1 -1 -1 -1 -1 -1 -1 -1 -1 -1 -1 -1 -1 -1 -1 -1 -1 -1 -1 -0 0 0 -0 -1 -1 -1 -1 -1 -1 -1 -1 -1 -1 -1 -0 -0 -0 -0 0 0 1 1 0 0 -0 -0 -0 0 0 0 0 0 1 1 1 1 1
-0 -0 -0 -0 -0 -0 -0 -0 -0 -0 -0 -1 -1 -1 -1 -1 -0 -0 -0 -0 -0 -0 -0 -0 -0 -0 -0 -0 -0 -1 -1 -1 -1 -1 -1 -1 -1 -1 -1 -1 -1 -1 -1 -1 -1 -1 -1 -1 -1 -1 -1 -1 -1 -1 -1 -1 -0 -0 -0 -0 -0 -0 -0 -1 -0 -0 0 0 0 0 -0 -1 -1 -1 -1 -1 -1 -1 -1 -1 -1 -1 -1 -0 -0 0 0 0 0 0 0 0 0 0 0 0 0 0 0 0 0 1 1
-0 -0 -0 -0 -0 -0 -0 -0 -0 -0 -1 -1 -1 -1 -1 -1 -1 -1 -1 -1 -1 -0 -0 -0 -0 -0 -0 -0 -1 -1 -1 -1 -1 -1 -1 -1 -1 -1 -1 -1 -1 -1 -1 -0 -0 -0 -0 -0 -0 -1 -1 -1 -1 -1 -0 -0 -0 -0 -0 -0 -0 -0 -0 -1 -0 -0 0 0 1 1 0 -0 -0 -0 -1 -1 -1 -1 -1 -1 -1 -1 -1 -1 -1 -0 -0 0 0 0 0 0 0 0 0 0 0 0 0 0 0 0 0
-0 -0 -0 -0 -0 -0 -1 -1 -1 -1 -1 -1 -1 -1 -1 -0 -1 -1 -1 -1 -1 -0 -0 -0 -0 -0 -1 -1 -1 -1 -1 -1 -1 -1 -1 -1 -1 -1 -1 -1 -1 -1 -1 -1 -0 -0 -0 -0 -0 -0 -1 -1 -1 -1 -1 -0 -0 -0 -0 -0 -0 -1 -1 -1 -1 -1 -0 0 1 1 1 0 0 0 -0 -0 -0 -1 -1 -1 -1 -1 -1 -1 -1 -1 -1 -1 -0 -0 -0 -0 0 0 0 0 0 0 0 -0 -0 -0 -0
-0 0 -0 -0 -0 -1 -1 -1 -1 -1 -1 -1 -1 -1 -0 -0 -1 -1 -1 -1 -1 -0 -1 -1 -1 -1 -1 -1 -1 -1 -1 -1 -1 -1 -1 -1 -1 -1 -1 -1 -1 -1 -1 -1 -0 -0 -0 -0 -0 -0 -1 -1 -1 -1 -1 -1 -1 -0 -0 -0 -1 -1 -1 -1 -1 -1 -1 -0 0 0 1 1 0 0 0 0 0 -0 -0 -1 -1 -1 -1 -1 -1 -1 -1 -1 -1 -1 -1 -1 -0 -0 0 0 0 0 0 0 -0 -0 -0
0 0 -0 -0 -0 -1 -1 -1 -1 -1 -1 -1 -1 -0 -0 -0 -1 -1 -1 -0 -1 -1 -1 -1 -1 -1 -1 -1 -1 -1 -1 -1 -1 -1 -1 -1 -1 -1 -1 -1 -1 -1 -1 -1 -1 -0 0 0 -0 -0 -0 -1 -1 -1 -1 -1 -1 -1 -1 -1 -1 -1 -1 -1 -1 -1 -1 -1 -1 -0 0 0 0 0 0 0 0 -0 -0 -1 -1 -1 -1 -1 -1 -1 -1 -1 -1 -1 -1 -1 -1 -1 -0 -0 0 0 0 0 -0 -0 -0
0 0 0 -0 -1 -1 -0 -0 -0 -1 -1 -1 -1 -0 -0 -0 -1 -1 -0 -0 -1 -1 -1 -1 -1 -1 -1 -1 -1 -1 -1 -1 -1 -1 -1 -1 -1 -1 -1 -1 -1 -2 -2 -1 -1 -0 0 0 0 -0 -0 -1 -1 -1 -1 -1 -1 -1 -1 -1 -1 -1 -1 -1 -1 -1 -1 -1 -1 -1 -1 -0 -0 -0 -0 -0 -0 -0 -0 -0 -0 -1 -1 -1 -1 -1 -1 -1 -1 -1 -1 -1 -1 -1 -1 -1 -0 0 0 0 -0 -0 -0
0 0 0 -0 -1 -1 -0 -0 -0 -1 -1 -1 -0 -0 -0 -1 -1 -1 -1 -1 -1 -1 -1 -1 -1 -1 -1 -1 -1 -0 -0 -0 -1 -1 -1 -1 -1 -1 -1 -1 -1 -2 -2 -1 -1 -1 -0 0 0 -0 -0 -1 -1 -1 -1 -1 -1 -1 -1 -1 -1 -1 -1 -2 -2 -1 -1 -1 -1 -1 -1 -1 -1 -1 -0 -0 -0 -0 -0 -0 -0 -0 -1 -1 -1 -1 -1 -1 -1 -1 -1 -1 -1 -1 -1 -1 -1 -0 0 0 -0 -0 -1
0 0 0 -0 -1 -1 -0 -0 -0 -1 -1 -0 -0 -0 -1 -1 -1 -1 -1 -1 -1 -1 -1 -1 -1 -1 -1 -1 -1 -0 -0 -0 -0 -1 -1 -1 -1 -0 -0 -1 -1 -2 -2 -2 -1 -1 -0 -0 -0 -0 -0 -1 -1 -1 -1 -1 -1 -1 -1 -1 -1 -1 -1 -2 -2 -2 -1 -1 -1 -1 -1 -1 -1 -1 -1 -1 -1 -1 -1 -1 -1 -1 -0 -0 -1 -1 -1 -1 -1 -1 -1 -1 -1 -1 -1 -1 -1 -1 -0 0 -0 -0 -1
-0 -0 -0 -1 -1 -0 -0 -0 -0 -1 -1 -0 -0 -0 -1 -1 -1 -1 -1 -1 -1 -1 -1 -1 -1 -1 -1 -1 -1 -1 -0 -0 -0 -1 -1 -1 -1 -0 -0 -0 -1 -1 -2 -2 -1 -1 -1 -0 -0 -0 -0 -1 -1 -1 -1 -1 -1 -1 -1 -1 -1 -1 -1 -1 -1 -1 -1 -1 -1 -1 -1 -1 -1 -1 -1 -1 -1 -1 -1 -1 -1 -1 -1 -1 -1 -1 -1 -1 -1 -1 -1 -1 -1 -1 -1 -1 -1 -1 -1 -0 -0 -0 -1
-0 -0 -1 -1 -1 -1 -0 -1 -0 -0 -0 -0 -0 -0 -1 -1 -1 -1 -1 -1 -1 -0 -0 -0 -1 -1 -1 -1 -1 -1 -0 -0 -0 -1 -1 -1 -0 -0 0 0 -0 -1 -1 -1 -1 -1 -1 -1 -1 -1 -1 -1 -1 -1 -1 -1 -1 -1 -1 -0 -0 -0 -0 -1 -1 -1 -1 -1 -1 -1 -1 -1 -1 -1 -0 -1 -1 -1 -1 -1 -1 -1 -1 -1 -1 -1 -1 -1 -1 -1 -1 -1 -1 -1 -1 -1 -1 -1 -1 -0 -0 -0 -0
-0 -1 -1 -1 -1 -1 -0 -1 -1 -0 0 -0 -0 -1 -1 -1 -1 -1 -1 -0 -0 -0 -0 -0 -0 -1 -1 -1 -1 -1 -1 -1 -1 -1 -1 -1 -0 0 0 0 -0 -1 -1 -1 -1 -1 -1 -1 -1 -1 -1 -1 -1 -1 -1 -1 -1 -1 -0 -0 0 0 0 0 -0 -1 -1 -1 -1 -1 -1 -1 -1 -0 -0 -0 -1 -1 -1 -1 -1 -1 -1 -1 -0 -0 -1 -1 -1 -1 -1 -1 -1 -1 -1 -1 -1 -0 -0 -0 -0 -0 -0
-1 -1 -1 -1 -1 -1 -1 -1 -0 -0 -0 -0 -1 -1 -1 -1 -0 -0 -0 -0 -0 0 0 -0 -0 -0 -0 -1 -1 -1 -1 -1 -1 -1 -1 -1 -0 0 0 0 -0 -1 -1 -1 -1 -1 -1 -1 -1 -1 -1 -1 -1 -1 -1 -1 -1 -1 -1 -1 -1 -0 -0 -0 -0 -0 -0 -0 -0 -1 -1 -1 -1 -1 -0 -0 -0 -1 -1 -1 -1 -1 -1 -0 -0 -0 -0 -0 -0 -0 -0 -0 -1 -1 -1 -0 0 0 0 0 -0 -0 -0
-1 -1 -0 -1 -1 -1 -1 -1 -0 -0 -0 -0 -1 -1 -0 -0 -0 -0 -0 -0 -0 -0 -0 -0 -0 -0 -0 -0 -1 -1 -1 -1 -1 -1 -1 -1 -0 0 0 0 -0 -1 -1 -1 -1 -1 -1 -2 -2 -2 -2 -1 -1 -1 -1 -2 -2 -2 -2 -2 -2 -2 -1 -1 -1 -1 -0 -0 -0 -1 -1 -1 -1 -1 -1 -1 -1 -1 -1 -1 -1 -1 -1 -1 -0 -0 -0 -0 -0 -0 -0 -0 -1 -1 -0 -0 0 0 0 0 0 -0 -1
-1 -1 -1 -1 -1 -1 -1 -1 -0 -1 -1 -1 -1 -1 -0 -0 -0 -0 -0 -0 -0 -0 -0 -0 -0 -0 -0 -0 -0 -0 -0 -1 -1 -1 -1 -1 -0 -0 -0 -0 -1 -1 -1 -1 -2 -2 -2 -2 -2 -2 -2 -2 -1 -1 -1 -2 -2 -2 -2 -3 -3 -3 -3 -2 -2 -2 -1 -1 -1 -2 -2 -2 -2 -2 -2 -2 -2 -2 -2 -2 -2 -1 -1 -1 -1 -1 -1 -1 -1 -1 -1 -1 -1 -1 -0 -0 -0 0 0 0 0 -0 -1
-1 -1 -1 -1 -1 -1 -0 -0 -0 -1 -1 -1 -0 -0 -0 -0 -0 -0 -0 -0 -0 -0 -0 -0 -0 -1 -1 -1 -0 -0 -0 -0 -0 -1 -0 -0 -1 -1 -1 -1 -1 -1 -1 -2 -2 -2 -2 -2 -2 -2 -2 -2 -1 -1 -1 -2 -2 -2 -2 -3 -3 -3 -3 -3 -3 -2 -2 -2 -2 -3 -3 -3 -3 -3 -3 -3 -3 -3 -3 -2 -2 -2 -2 -2 -2 -2 -2 -2 -2 -2 -2 -2 -2 -1 -1 -1 -1 -1 -1 -0 -0 -0 -1
-1 -2 -1 -1 -1 -1 -1 -1 -0 -1 -1 -1 -0 -0 -0 -0 -0 -0 -0 -0 -0 -0 -0 -0 -1 -1 -1 -1 -1 -0 -0 -0 -0 -0 -1 -1 -1 -1 -1 -1 -1 -1 -2 -2 -2 -2 -2 -2 -2 -2 -2 -2 -2 -2 -2 -2 -2 -2 -2 -3 -3 -3 -3 -3 -3 -3 -3 -3 -3 -4 -4 -4 -4 -4 -4 -4 -3 -3 -3 -3 -3 -2 -2 -3 -3 -3 -3 -3 -3 -3 -3 -3 -2 -2 -2 -1 -2 -2 -1 -1 -1 -1 -1
-1 -1 -1 -1 -1 -1 -0 -0 -0 -0 -0 -0 -0 -0 -0 -0 0 -0 -0 -0 -0 -0 -0 -0 -1 -1 -1 -1 -1 -1 -1 -1 -0 -0 -1 -1 -1 -1 -1 -1 -1 -1 -2 -2 -2 -2 -2 -2 -1 -2 -2 -2 -2 -2 -2 -2 -2 -2 -2 -3 -3 -3 -3 -3 -3 -3 -3 -3 -4 -4 -4 -4 -4 -4 -4 -4 -3 -3 -3 -3 -3 -3 -3 -3 -3 -4 -4 -4 -4 -3 -3 -3 -3 -2 -2 -2 -2 -2 -2 -2 -2 -2 -2
-1 -1 -1 -1 -1 -0 -0 -0 -0 -0 -0 -0 -0 -0 -0 -0 -0 -0 -0 -0 -0 0 0 -0 -0 -0 -1 -1 -1 -1 -1 -1 -1 -1 -1 -1 -1 -1 -1 -1 -1 -1 -1 -2 -2 -2 -2 -2 -2 -2 -2 -2 -2 -2 -2 -2 -2 -2 -2 -3 -3 -3 -3 -3 -3 -3 -3 -3 -3 -3 -3 -3 -3 -3 -3 -3 -3 -3 -3 -3 -3 -3 -3 -3 -3 -3 -3 -3 -3 -3 -3 -3 -2 -2 -2 -3 -3 -3 -3 -3 -3 -3 -3
-1 -1 -1 -1 -1 -0 -0 -0 -0 -0 -0 -0 -0 -0 -0 -0 -0 -0 -0 -0 -0 0 0 0 0 -0 -0 -1 -1 -1 -1 -1 -1 -1 -1 -1 -2 -2 -1 -1 -1 -1 -1 -2 -2 -2 -2 -2 -2 -2 -2 -2 -2 -2 -2 -2 -2 -2 -2 -2 -2 -2 -2 -2 -2 -2 -2 -2 -3 -3 -3 -3 -2 -2 -2 -2 -2 -2 -2 -2 -2 -3 -3 -3 -3 -3 -3 -2 -2 -2 -2 -2 -2 -2 -2 -2 -2 -3 -3 -3 -3 -3 -3
-1 -1 -1 -1 -1 -0 -0 -0 -0 -0 -0 -0 -0 -0 -0 -0 -0 -0 -0 -0 -0 0 0 0 0 0 0 -0 -1 -1 -1 -1 -1 -1 -2 -2 -2 -1 -1 -1 -1 -1 -1 -1 -1 -1 -1 -1 -2 -2 -2 -2 -2 -2 -2 -2 -2 -2 -2 -2 -2 -2 -2 -2 -2 -2 -2 -2 -2 -2 -2 -2 -2 -2 -2 -2 -2 -2 -2 -2 -2 -2 -2 -2 -2 -2 -2 -2 -2 -1 -1 -1 -1 -1 -1 -2 -2 -2 -2 -2 -2 -2 -2
-1 -1 -1 -1 -1 -1 -1 -0 -0 -0 -0 -0 -0 -0 -0 -0 -0 -0 -0 -0 -0 -0 0 0 0 0 0 -0 -0 -1 -1 -1 -1 -1 -2 -2 -1 -1 -1 -1 -1 -1 -1 -1 -1 -1 -1 -1 -2 -2 -2 -2 -2 -2 -2 -2 -2 -2 -2 -2 -2 -2 -2 -1 -1 -1 -1 -1 -2 -2 -2 -2 -2 -2 -2 -2 -1 -1 -2 -2 -2 -2 -2 -2 -2 -2 -2 -2 -1 -1 -1 -1 -1 -1 -1 -1 -2 -2 -2 -2 -2 -2 -2
-1 -1 -1 -1 -1 -1 -1 -0 -0 -0 -0 -0 -0 -0 -0 -0 -0 -0 -0 -0 -0 -0 -0 -0 -0 -0 -0 0 -0 -0 -1 -1 -1 -1 -1 -1 -1 -1 -1 -1 -0 -0 -1 -1 -1 -1 -1 -1 -1 -2 -2 -2 -2 -1 -1 -1 -1 -1 -1 -1 -1 -1 -1 -1 -1 -1 -1 -1 -1 -2 -2 -2 -2 -2 -2 -2 -1 -2 -2 -2 -2 -2 -2 -2 -2 -2 -2 -2 -2 -1 -1 -1 -1 -1 -1 -1 -2 -2 -2 -2 -2 -2 -2
-1 -1 -1 -1 -1 -1 -0 -0 -0 -0 -0 -0 -0 -0 0 0 -0 -0 -0 -0 -1 -1 -1 -1 -0 -0 -0 -0 -0 -0 -0 -1 -1 -1 -1 -1 -1 -1 -1 -1 -0 -0 -1 -1 -1 -1 -1 -1 -1 -1 -1 -1 -1 -1 -1 -1 -1 -1 -1 -1 -1 -1 -1 -1 -1 -1 -1 -2 -2 -1 -1 -1 -1 -1 -2 -1 -1 -2 -2 -2 -2 -2 -2 -2 -2 -2 -2 -2 -2 -2 -2 -2 -2 -2 -2 -2 -2 -2 -2 -2 -2 -2 -2
-1 -1 -1 -1 -1 -0 -0 -1 -0 -0 -0 -0 -0 0 0 0 -0 -0 -0 -0 -1 -1 -1 -1 -1 -0 -0 -0 -0 -0 -0 -0 -1 -1 -1 -1 -1 -1 -1 -1 -1 -1 -0 -1 -1 -1 -1 -1 -1 -1 -1 -1 -1 -1 -1 -1 -1 -1 -1 -1 -1 -1 -1 -1 -1 -1 -1 -2 -2 -1 -1 -1 -1 -1 -1 -1 -1 -1 -2 -2 -2 -2 -2 -2 -2 -2 -2 -2 -2 -2 -2 -2 -2 -2 -2 -2 -2 -2 -2 -2 -2 -2 -2
-1 -1 -1 -1 -0 -0 -0 -1 -1 -0 -0 -0 -0 -0 0 -0 -0 -0 -0 -0 -0 -0 -0 -0 -0 -0 -0 -0 -0 -0 0 -0 -0 -1 -1 -1 -1 -1 -1 -1 -1 -1 -1 -1 -1 -1 -1 -1 -1 -1 -1 -1 -1 -1 -1 -1 -1 -1 -1 -1 -1 -2 -2 -2 -2 -2 -1 -1 -1 -1 -1 -1 -1 -1 -1 -1 -1 -1 -1 -1 -2 -2 -2 -2 -2 -2 -2 -2 -2 -2 -2 -2 -2 -2 -2 -2 -2 -2 -2 -2 -2 -2 -2
-1 -1 -1 -1 -0 -0 -0 -1 -1 -0 -0 -0 -0 -0 -0 -0 -0 -0 -0 -0 -0 -0 -0 -0 -0 -0 -0 -0 -0 -0 -0 -0 -0 -1 -1 -1 -1 -1 -0 -1 -1 -1 -1 -1 -1 -1 -1 -1 -1 -1 -1 -1 -1 -1 -1 -1 -1 -1 -1 -1 -2 -2 -2 -2 -2 -2 -1 -1 -1 -1 -1 -1 -1 -1 -1 -1 -1 -1 -1 -1 -1 -1 -2 -2 -2 -2 -2 -2 -2 -2 -2 -2 -2 -2 -2 -2 -2 -2 -2 -2 -2 -2 -2
-1 -1 -1 -1 -0 -0 -0 -0 -0 -0 -0 -0 -0 -0 -0 -0 -0 -0 -0 -0 -0 -0 -0 -0 -0 -0 -1 -0 -0 -0 -0 -0 -0 -1 -1 -1 -1 -1 -1 -1 -1 -1 -1 -1 -1 -1 -1 -1 -1 -1 -1 -1 -1 -1 -1 -1 -1 -2 -1 -2 -2 -2 -2 -2 -2 -2 -1 -1 -1 -1 -1 -1 -1 -1 -1 -1 -1 -1 -0 -1 -1 -1 -1 -1 -1 -1 -1 -1 -1 -2 -2 -2 -2 -2 -2 -2 -2 -2 -2 -2 -2 -2 -2
-1 -1 -1 -1 -1 -0 -0 0 0 0 -0 -0 -0 -0 -0 -0 -0 -0 -0 -0 -0 -0 -0 -0 -1 -1 -1 -1 -1 -1 -0 -1 -1 -1 -1 -1 -1 -1 -1 -1 -1 -1 -1 -1 -1 -1 -1 -1 -1 -1 -1 -1 -1 -1 -1 -1 -1 -1 -1 -2 -2 -2 -2 -2 -2 -2 -1 -1 -1 -1 -1 -1 -1 -1 -1 -1 -1 -1 -0 -0 -0 -0 -0 -1 -1 -1 -1 -1 -1 -1 -2 -2 -2 -2 -2 -2 -2 -2 -2 -2 -2 -2 -1
-1 -1 -0 -0 -0 -0 0 0 0 0 -0 -0 -0 -0 -0 -0 -0 -0 -0 0 -0 -0 -1 -1 -1 -1 -1 -1 -1 -1 -1 -1 -1 -1 -1 -1 -1 -1 -1 -1 -1 -1 -0 -1 -1 -1 -1 -1 -1 -1 -1 -1 -1 -1 -1 -2 -1 -1 -1 -2 -1 -1 -1 -1 -2 -1 -1 -1 -1 -1 -1 -1 -1 -1 -1 -1 -1 -1 -0 0 0 0 -0 -1 -1 -1 -1 -1 -1 -1 -2 -2 -2 -2 -2 -2 -2 -2 -2 -2 -2 -1 -1
-0 -0 -0 0 0 1 1 1 0 0 0 0 -0 -0 -0 -0 0 0 0 0 0 -0 -1 -1 -1 -1 -1 -1 -1 -1 -1 -1 -1 -1 -1 -1 -1 -1 -1 -1 -1 -1 -1 -1 -1 -1 -1 -1 -1 -1 -1 -1 -1 -2 -2 -2 -2 -2 -2 -1 -1 -1 -1 -1 -1 -2 -1 -2 -2 -1 -1 -1 -1 -1 -1 -1 -1 -0 -0 0 0 0 -0 -1 -1 -2 -2 -2 -2 -2 -2 -2 -2 -2 -2 -2 -2 -2 -2 -2 -2 -2 -1
-0 -0 0 0 0 1 1 0 0 0 0 0 0 -0 -0 0 0 0 0 0 0 -0 -0 -0 -0 -1 -1 -1 -1 -1 -1 -1 -1 -1 -1 -1 -1 -1 -1 -1 -1 -1 -1 -1 -1 -1 -2 -1 -1 -1 -1 -1 -1 -2 -2 -2 -2 -2 -2 -1 -1 -2 -1 -1 -1 -2 -2 -2 -2 -2 -1 -1 -1 -1 -1 -1 -1 -0 -0 0 0 0 -0 -1 -1 -2 -2 -2 -2 -2 -2 -2 -2 -2 -2 -2 -3 -2 -2 -2 -2 -2 -2
0 0 0 0 0 0 0 0 0 0 0 0 0 0 0 0 0 0 0 0 0 0 0 -0 -0 -0 -0 -1 -1 -1 -0 -1 -1 -1 -1 -1 -1 -1 -2 -1 -0 -0 -1 -0 -0 -1 -2 -2 -1 -1 -1 -1 -1 -2 -2 -2 -2 -2 -2 -2 -2 -2 -2 -1 -1 -1 -2 -2 -2 -2 -1 -2 -1 -1 -1 -1 -1 -0 -0 0 0 0 -0 -1 -1 -2 -2 -2 -2 -2 -2 -2 -2 -2 -2 -2 -3 -3 -3 -3 -2 -2 -2
0 0 0 0 0 0 0 0 0 0 0 0 0 0 0 0 1 1 1 1 0 0 0 -0 -0 -0 -0 -1 -1 -0 1 0 -0 -0 -1 -1 -0 0 -1 -2 -2 -1 -1 -0 0 1 0 -2 -2 -2 -1 -1 -1 -1 -2 -2 -1 -2 -2 -2 -2 -2 -2 -2 -2 -2 -2 -2 -2 -2 -2 -2 -2 -1 -1 -1 -1 -1 -1 -0 0 0 0 0 -1 -1 -2 -2 -2 -2 -2 -2 -2 -2 -2 -2 -3 -3 -3 -3 -2 -2 -2
-0 0 0 0 0 0 0 1 1 1 1 1 0 0 0 0 1 1 1 1 1 0 0 0 -0 -1 -1 -1 -0 0 1 1 0 -0 -0 -1 -1 0 0 -1 -2 -3 -1 -1 -1 -1 4 3 1 1 2 0 -0 -1 -1 -0 -0 -0 -1 -1 -1 -2 -2 -2 -2 -2 -2 -2 -2 -2 -2 -2 -2 -1 -1 -2 -2 -1 -1 -1 -0 0 0 0 0 -0 -1 -1 -1 -1 -1 -2 -2 -2 -2 -2 -2 -3 -3 -2 -2 -2 -2
-1 -1 -1 -0 -0 0 1 1 1 1 1 1 0 -0 -0 0 1 1 1 1 1 0 0 0 -0 -0 -1 -0 0 0 1 1 1 -0 -0 -0 -1 -1 -0 1 -0 -2 -1 -0 -4 -6 -1 -0 1 4 7 5 2 -0 0 2 2 1 0 -0 -1 -1 -1 -1 -2 -2 -2 -2 -2 -2 -1 -2 -2 -1 -1 -2 -2 -2 -2 -1 -1 -0 0 0 0 -0 -1 -1 -1 -1 -1 -1 -2 -2 -2 -2 -2 -2 -2 -2 -2 -2 -2
-2 -2 -2 -1 -1 -0 1 1 1 1 1 0 0 0 0 0 1 1 1 0 0 0 0 -0 0 0 -0 -1 -0 0 0 1 1 0 -0 0 0 -0 -3 -1 0 1 1 1 -3 -7 -5 -4 -4 -4 -0 5 3 0 -0 3 3 1 1 0 -0 -1 -0 -1 -1 -1 -1 -2 -2 -2 -2 -2 -2 -1 -1 -2 -2 -2 -2 -2 -1 -1 0 0 0 0 0 -1 -1 -1 -1 -1 -1 -2 -2 -2 -2 -2 -2 -2 -2 -2 -2
-2 -2 -2 -1 -1 -0 0 1 1 1 1 0 0 0 1 1 1 0 0 0 0 0 -0 -0 -0 -0 -0 -1 -1 -1 -0 1 2 1 0 -0 1 1 -2 -4 -2 0 0 2 1 -0 -3 -4 -3 -4 -8 0 2 0 -2 3 3 1 1 1 1 0 -0 -0 -1 -1 -2 -2 -2 -1 -1 -2 -2 -2 -2 -2 -2 -2 -2 -2 -2 -1 -0 0 0 0 0 -0 -1 -1 -1 -1 -1 -1 -2 -2 -2 -2 -2 -2 -2 -2 -2
-1 -2 -1 -1 -1 -1 -0 0 1 1 1 1 1 1 1 1 0 -1 -1 -1 -1 -1 -1 -1 -1 -1 -0 -0 -1 -2 -2 0 2 3 2 -0 0 1 2 -0 -2 -3 -3 -3 -1 1 -2 -2 -1 -3 -9 -2 1 0 -3 1 3 2 1 2 2 1 0 -0 -0 -0 -1 -2 -2 -2 -1 -1 -1 -2 -3 -2 -2 -2 -2 -2 -2 -2 -1 -0 0 1 1 0 -0 -1 -1 -2 -2 -1 -1 -2 -2 -2 -2 -2 -2 -2 -2
-1 -1 -1 -1 -1 -1 -0 0 1 1 2 2 1 1 0 0 0 0 -0 0 -0 -0 -1 -1 -1 -1 -1 -0 -1 -2 -3 -1 1 4 5 2 0 -0 1 1 1 1 0 -4 -4 -3 -6 2 3 -2 -14 -4 0 0 -3 -3 -1 2 4 3 3 3 2 0 -0 -0 0 -1 -2 -2 -2 -0 -0 -2 -3 -2 -1 -2 -2 -2 -2 -2 -1 0 1 1 1 0 -0 -1 -1 -2 -2 -2 -2 -2 -2 -2 -2 -2 -2 -2 -1
-0 -1 -1 -1 -1 -1 -0 0 0 1 1 2 1 1 1 1 1 1 1 0 0 -0 0 0 -0 -0 -1 -1 -1 -1 -2 -2 -1 1 5 5 2 0 1 1 1 2 2 -1 -1 -1 -6 -2 -0 -2 -9 -7 -4 1 6 -3 -6 -3 3 4 5 4 3 1 0 -0 0 -1 -1 -2 -3 -2 -1 -1 -2 -2 -2 -1 -1 -2 -2 -2 -1 -0 1 1 2 1 0 -0 -1 -1 -2 -2 -2 -2 -2 -2 -2 -2 -2 -2 -2
0 -0 -1 -1 -1 -1 -1 -1 0 0 1 2 2 2 1 1 1 1 1 0 0 0 0 -0 -1 -1 -0 -0 -0 -0 -2 -2 -2 -2 1 4 4 3 4 2 0 0 0 0 1 2 1 -3 -6 -5 -1 -9 -11 -6 5 2 -2 -5 -5 -0 3 5 3 2 1 0 -0 -1 -1 -2 -2 -3 -2 -1 -1 -2 -2 -1 -1 -1 -1 -1 -1 -0 1 1 2 2 1 1 -0 -0 -1 -1 -1 -2 -2 -2 -2 -2 -2 -2 -2
0 0 -0 -0 -1 -1 -1 -1 -0 0 0 1 2 2 1 1 1 1 1 1 0 0 0 -0 -2 -2 -1 -0 0 0 -1 -2 -2 -2 0 1 1 2 8 4 1 -1 1 0 1 2 3 1 -1 -2 -2 -7 -11 -12 -6 2 4 0 -6 -5 -1 1 2 2 3 3 1 -1 -1 -1 -1 -3 -3 -2 -1 -1 -1 -1 -1 -1 -1 -1 -1 -0 1 2 2 2 2 1 1 0 0 -0 -0 -1 -1 -2 -2 -2 -1 -1 -1
0 0 0 -0 -0 -1 -1 -1 -1 -0 -0 0 1 1 1 1 1 1 1 1 1 1 0 0 0 -1 -3 -2 -1 0 -0 -1 -2 -1 0 1 -2 -2 5 6 3 1 2 1 2 3 3 1 2 2 1 -3 -7 -10 -14 -4 3 4 -6 -5 -3 -2 -2 1 4 6 5 2 -0 -1 -0 -1 -3 -3 -3 -2 -1 -1 -1 -0 -0 -0 -0 -0 1 2 3 3 3 2 1 1 0 0 0 -0 -0 -1 -1 -1 -1 -1 -1
Height
3172 3172 3171 3171 3171 3171 3170 3171 3171 3170 3170 3170 3170 3170 3170 3170 3169 3169 3169 3169 3168 3168 3168 3168 3167 3167 3167 3166 3166 3166 3165 3165 3165 3165 3164 3164 3164 3163 3163 3163 3162 3162 3162 3162 3161 3161 3161 3160 3160 3160 3159 3159 3159 3158 3158 3157 3157 3156 3156 3155 3155 3155 3155 3154 3154 3154 3153 3153 3152 3152 3152 3151 3151 3151 3150 3150 3150 3149 3149 3148 3148 3147 3147 3147 3146 3146 3146 3145 3145 3145 3144 3144 3144 3143 3143 3143 3142 3141 3142 3142 3141 3141 3141
3172 3172 3171 3171 3171 3171 3170 3170 3170 3170 3170 3170 3170 3170 3169 3169 3169 3169 3169 3168 3168 3168 3168 3167 3167 3167 3166 3166 3166 3165 3165 3165 3165 3164 3164 3163 3163 3163 3162 3162 3162 3162 3161 3161 3161 3160 3160 3160 3160 3159 3159 3159 3158 3158 3157 3157 3156 3156 3155 3155 3155 3154 3154 3153 3153 3153 3153 3152 3152 3151 3151 3150 3150 3150 3150 3150 3149 3148 3148 3148 3147 3147 3146 3146 3146 3145 3145 3145 3144 3144 3144 3143 3143 3142 3142 3142 3141 3141 3141 3141 3140 3140 3140
3172 3172 3171 3171 3171 3171 3170 3170 3170 3170 3170 3170 3169 3169 3169 3169 3169 3169 3168 3168 3168 3168 3167 3167 3167 3166 3166 3166 3165 3165 3165 3164 3164 3164 3163 3163 3163 3162 3162 3162 3161 3161 3161 3160 3160 3160 3160 3160 3159 3159 3158 3158 3158 3157 3157 3156 3156 3155 3155 3155 3154 3154 3153 3153 3152 3152 3152 3151 3151 3151 3150 3150 3150 3150 3149 3149 3148 3148 3147 3147 3147 3146 3146 3145 3145 3145 3144 3144 3143 3143 3143 3142 3142 3142 3141 3141 3140 3140 3140 3140 3140 3139 3139
3172 3172 3171 3171 3171 3171 3170 3170 3170 3170 3170 3169 3169 3169 3169 3169 3168 3168 3168 3168 3167 3167 3167 3166 3166 3166 3166 3165 3165 3165 3164 3164 3164 3163 3163 3163 3162 3162 3162 3161 3161 3160 3160 3160 3160 3160 3159 3159 3159 3158 3158 3158 3157 3157 3156 3156 3155 3155 3155 3154 3154 3153 3153 3152 3152 3151 3151 3151 3150 3150 3150 3149 3149 3149 3148 3148 3147 3147 3146 3146 3146 3145 3145 3145 3145 3144 3144 3143 3143 3142 3142 3141 3141 3140 3140 3140 3140 3140 3139 3139 3138 3138 3138
3172 3171 3171 3171 3171 3171 3170 3170 3170 3170 3170 3169 3169 3169 3169 3168 3168 3168 3167 3167 3167 3167 3166 3166 3166 3165 3165 3165 3165 3164 3164 3163 3163 3163 3162 3162 3162 3161 3161 3161 3160 3160 3160 3160 3159 3159 3159 3158 3158 3158 3157 3157 3156 3156 3156 3155 3155 3155 3154 3154 3153 3153 3152 3152 3151 3151 3150 3150 3150 3149 3149 3148 3148 3148 3147 3147 3146 3146 3145 3145 3145 3145 3145 3144 3144 3143 3143 3142 3142 3141 3141 3141 3140 3140 3140 3139 3139 3139 3138 3138 3137 3137 3137
3172 3171 3171 3171 3171 3170 3170 3170 3170 3170 3169 3169 3169 3169 3168 3168 3168 3168 3167 3167 3167 3166 3166 3166 3165 3165 3165 3165 3164 3164 3163 3163 3163 3162 3162 3162 3161 3161 3160 3160 3160 3160 3159 3159 3159 3158 3158 3158 3158 3157 3157 3156 3156 3155 3155 3155 3154 3154 3153 3153 3153 3152 3152 3151 3151 3150 3150 3150 3149 3149 3148 3148 3147 3147 3146 3146 3145 3145 3145 3144 3144 3144 3143 3143 3142 3142 3142 3141 3141 3140 3140 3140 3140 3139 3139 3138 3138 3138 3137 3137 3136 3136 3136
3171 3171 3171 3171 3170 3170 3170 3170 3170 3170 3169 3169 3169 3169 3168 3168 3168 3167 3167 3167 3166 3166 3166 3165 3165 3165 3165 3164 3164 3163 3163 3163 3162 3162 3161 3161 3161 3160 3160 3160 3160 3159 3159 3159 3158 3158 3157 3157 3157 3156 3156 3155 3155 3155 3154 3154 3154 3153 3153 3152 3152 3151 3151 3150 3150 3150 3149 3149 3148 3148 3147 3147 3147 3146 3146 3145 3145 3144 3144 3144 3143 3143 3142 3142 3141 3141 3140 3140 3140 3140 3139 3139 3138 3138 3138 3137 3137 3137 3136 3136 3135 3135 3135
3171 3171 3171 3170 3170 3170 3170 3170 3170 3169 3169 3169 3169 3168 3168 3168 3167 3167 3167 3166 3166 3166 3165 3165 3165 3165 3164 3164 3163 3163 3163 3162 3162 3161 3161 3161 3160 3160 3160 3159 3159 3159 3158 3158 3158 3157 3157 3157 3156 3156 3155 3155 3155 3154 3154 3153 3153 3152 3152 3152 3151 3151 3150 3150 3149 3149 3149 3148 3148 3147 3147 3146 3146 3145 3145 3145 3144 3144 3143 3143 3142 3142 3141 3141 3140 3140 3140 3139 3139 3138 3138 3138 3137 3137 3136 3136 3136 3135 3135 3135 3135 3134 3134
3171 3170 3170 3170 3170 3170 3170 3169 3169 3169 3169 3169 3168 3168 3168 3168 3167 3167 3167 3166 3166 3165 3165 3165 3165 3164 3164 3163 3163 3163 3162 3162 3161 3161 3161 3160 3160 3160 3159 3159 3159 3158 3158 3158 3157 3157 3156 3156 3156 3155 3155 3155 3154 3154 3153 3153 3152 3152 3151 3151 3150 3150 3150 3149 3149 3148 3148 3147 3147 3146 3146 3145 3145 3145 3145 3144 3144 3143 3142 3142 3142 3141 3141 3140 3140 3139 3139 3138 3138 3137 3137 3136 3136 3136 3135 3135 3135 3134 3134 3134 3133 3133 3132
3170 3170 3170 3170 3170 3169 3169 3169 3169 3169 3168 3168 3168 3168 3167 3167 3167 3166 3166 3166 3165 3165 3165 3165 3164 3164 3163 3163 3162 3162 3162 3161 3161 3160 3160 3160 3160 3159 3159 3158 3158 3158 3157 3157 3157 3156 3156 3155 3155 3155 3155 3154 3154 3153 3153 3152 3152 3151 3151 3150 3150 3149 3149 3148 3148 3147 3147 3147 3146 3146 3145 3145 3144 3144 3144 3143 3143 3142 3142 3141 3141 3140 3140 3139 3139 3138 3138 3137 3137 3136 3136 3136 3135 3135 3135 3134 3134 3133 3133 3132 3132 3132 3131
3170 3170 3170 3170 3169 3169 3169 3169 3169 3168 3168 3168 3167 3167 3167 3166 3166 3166 3166 3165 3165 3165 3165 3164 3163 3163 3163 3162 3162 3161 3161 3161 3160 3160 3160 3159 3159 3159 3158 3158 3158 3157 3157 3157 3156 3156 3155 3155 3155 3155 3154 3154 3153 3153 3152 3152 3151 3151 3150 3150 3150 3149 3148 3148 3147 3147 3146 3146 3145 3145 3145 3144 3144 3143 3143 3142 3142 3141 3141 3140 3140 3140 3139 3139 3138 3138 3137 3137 3136 3135 3135 3135 3134 3134 3134 3133 3133 3132 3132 3131 3131 3130 3130
3170 3170 3169 3169 3169 3169 3169 3168 3168 3168 3168 3167 3167 3166 3166 3166 3166 3165 3165 3165 3165 3164 3163 3163 3163 3162 3162 3162 3161 3161 3160 3160 3160 3160 3159 3159 3158 3158 3158 3157 3157 3157 3156 3156 3156 3155 3155 3155 3154 3154 3154 3153 3153 3152 3152 3151 3151 3150 3150 3150 3149 3148 3148 3147 3147 3146 3146 3145 3145 3144 3144 3143 3143 3142 3142 3142 3141 3141 3140 3140 3139 3139 3138 3138 3137 3137 3136 3136 3135 3135 3134 3134 3133 3133 3132 3132 3132 3131 3131 3130 3130 3130 3129
3169 3169 3169 3169 3168 3168 3168 3168 3168 3167 3167 3167 3166 3166 3166 3165 3165 3165 3164 3164 3164 3163 3163 3162 3162 3162 3161 3161 3161 3160 3160 3160 3159 3159 3159 3158 3158 3158 3157 3157 3157 3156 3156 3156 3155 3155 3155 3154 3154 3153 3153 3153 3152 3152 3151 3151 3150 3150 3150 3149 3148 3148 3147 3147 3146 3146 3145 3145 3144 3144 3143 3143 3142 3142 3141 3141 3140 3140 3140 3139 3138 3138 3137 3137 3136 3136 3135 3135 3134 3134 3133 3133 3132 3132 3131 3131 3130 3130 3130 3129 3129 3129 3128
3169 3169 3168 3168 3168 3168 3168 3167 3167 3167 3167 3166 3166 3165 3165 3165 3164 3164 3164 3163 3163 3163 3162 3162 3161 3161 3161 3160 3160 3160 3160 3159 3159 3158 3158 3158 3157 3157 3157 3156 3156 3156 3155 3155 3155 3155 3154 3154 3153 3153 3152 3152 3152 3151 3151 3150 3150 3149 3149 3148 3148 3147 3147 3146 3146 3145 3145 3144 3144 3143 3142 3142 3141 3141 3140 3140 3140 3139 3139 3138 3137 3137 3136 3136 3136 3135 3135 3134 3134 3133 3132 3132 3131 3131 3130 3130 3130 3129 3129 3128 3128 3128 3127
3169 3168 3168 3168 3168 3167 3167 3167 3167 3166 3166 3165 3165 3165 3165 3164 3164 3163 3163 3163 3162 3162 3162 3161 3161 3161 3160 3160 3160 3159 3159 3159 3158 3158 3158 3157 3157 3157 3156 3156 3155 3155 3155 3155 3154 3154 3153 3153 3153 3152 3152 3151 3151 3150 3150 3150 3149 3149 3148 3148 3147 3147 3146 3146 3145 3145 3144 3144 3143 3142 3142 3141 3140 3140 3140 3139 3139 3138 3138 3137 3137 3136 3135 3135 3135 3134 3134 3133 3133 3132 3131 3131 3130 3130 3130 3129 3129 3128 3128 3127 3127 3126 3126
3168 3168 3168 3167 3167 3167 3167 3166 3166 3166 3165 3165 3165 3164 3164 3164 3163 3163 3163 3162 3162 3162 3161 3161 3161 3160 3160 3160 3159 3159 3159 3158 3158 3158 3157 3157 3156 3156 3156 3155 3155 3155 3154 3154 3154 3153 3153 3152 3152 3151 3151 3150 3150 3150 3149 3149 3148 3148 3147 3147 3146 3146 3145 3145 3145 3144 3144 3143 3142 3142 3141 3140 3140 3140 3139 3138 3138 3137 3137 3136 3135 3135 3135 3134 3134 3133 3133 3132 3132 3131 3130 3130 3130 3129 3129 3128 3128 3127 3127 3126 3126 3125 3125
3168 3168 3167 3167 3167 3166 3166 3166 3165 3165 3165 3165 3164 3164 3163 3163 3163 3162 3162 3162 3161 3161 3161 3160 3160 3160 3160 3159 3159 3159 3158 3158 3158 3157 3157 3156 3156 3156 3155 3155 3155 3154 3154 3154 3153 3153 3152 3152 3151 3151 3150 3150 3150 3149 3149 3148 3148 3147 3147 3146 3146 3145 3145 3144 3144 3143 3143 3142 3142 3141 3140 3140 3139 3139 3138 3138 3137 3136 3136 3135 3135 3134 3134 3133 3133 3132 3132 3131 3131 3130 3130 3129 3129 3128 3128 3127 3127 3126 3126 3125 3125 3125 3124
3168 3167 3167 3167 3166 3166 3166 3165 3165 3165 3165 3164 3164 3163 3163 3163 3162 3162 3162 3161 3161 3161 3160 3160 3160 3160 3159 3159 3159 3159 3158 3158 3157 3157 3156 3156 3156 3155 3155 3155 3154 3154 3153 3153 3153 3152 3152 3151 3151 3150 3150 3149 3149 3148 3148 3147 3147 3146 3146 3145 3145 3145 3144 3144 3143 3143 3142 3142 3141 3140 3140 3139 3138 3138 3137 3137 3136 3136 3135 3135 3134 3133 3133 3132 3132 3131 3131 3130 3130 3129 3129 3128 3128 3127 3127 3126 3126 3125 3125 3125 3124 3123 3123
3167 3167 3167 3166 3166 3166 3165 3165 3165 3164 3164 3164 3163 3163 3163 3162 3162 3162 3161 3161 3161 3160 3160 3160 3160 3159 3159 3159 3159 3158 3158 3158 3157 3157 3156 3156 3155 3155 3155 3154 3154 3153 3153 3153 3152 3152 3151 3151 3150 3150 3149 3149 3148 3148 3147 3147 3146 3146 3145 3145 3144 3144 3143 3143 3142 3142 3141 3141 3140 3140 3139 3138 3138 3137 3137 3136 3135 3135 3134 3134 3133 3133 3132 3131 3131 3130 3130 3130 3129 3128 3127 3127 3126 3126 3126 3125 3125 3124 3124 3123 3123 3122 3122
3167 3167 3166 3166 3166 3165 3165 3165 3164 3164 3164 3163 3163 3163 3162 3162 3162 3161 3161 3161 3160 3160 3160 3160 3159 3159 3159 3159 3158 3158 3158 3157 3157 3156 3156 3155 3155 3155 3154 3154 3154 3153 3153 3152 3152 3151 3151 3150 3150 3150 3149 3148 3148 3147 3147 3146 3146 3145 3145 3144 3144 3143 3143 3142 3141 3141 3140 3140 3140 3139 3138 3137 3137 3136 3136 3135 3135 3134 3134 3133 3132 3132 3131 3131 3130 3130 3129 3129 3128 3127 3126 3126 3125 3125 3125 3124 3124 3123 3123 3122 3122 3121 3121
3167 3167 3166 3166 3165 3165 3165 3165 3164 3164 3163 3163 3163 3162 3162 3162 3162 3161 3161 3161 3160 3160 3160 3160 3159 3159 3159 3158 3158 3158 3157 3157 3156 3156 3156 3155 3155 3155 3154 3154 3153 3153 3152 3152 3151 3151 3150 3150 3150 3149 3149 3148 3147 3147 3146 3146 3145 3145 3144 3144 3143 3143 3142 3141 3141 3140 3140 3140 3139 3138 3138 3137 3136 3135 3135 3135 3134 3133 3133 3132 3131 3131 3130 3130 3129 3129 3128 3128 3127 3126 3126 3125 3125 3124 3124 3123 3123 3122 3122 3121 3120 3120 3120
3166 3166 3166 3165 3165 3165 3165 3164 3164 3164 3163 3163 3163 3162 3162 3162 3161 3161 3161 3160 3160 3160 3160 3159 3159 3159 3158 3158 3158 3157 3157 3157 3156 3156 3155 3155 3155 3154 3154 3154 3153 3153 3152 3152 3151 3151 3150 3150 3149 3149 3148 3148 3147 3147 3146 3145 3145 3144 3144 3143 3143 3142 3141 3141 3140 3140 3139 3139 3138 3138 3137 3136 3135 3135 3134 3134 3133 3133 3132 3131 3130 3130 3129 3129 3128 3128 3127 3127 3126 3125 3125 3124 3124 3123 3123 3122 3122 3121 3120 3120 3120 3119 3118
3166 3166 3166 3165 3165 3165 3165 3164 3164 3164 3163 3163 3163 3162 3162 3162 3161 3161 3161 3160 3160 3160 3160 3159 3159 3159 3158 3158 3158 3157 3157 3156 3156 3156 3155 3155 3155 3154 3154 3153 3153 3152 3152 3151 3151 3150 3150 3150 3149 3149 3148 3147 3147 3146 3146 3145 3145 3144 3143 3143 3142 3141 3141 3140 3140 3139 3139 3138 3137 3137 3136 3136 3135 3134 3134 3133 3132 3132 3131 3130 3130 3129 3129 3128 3127 3127 3126 3126 3125 3125 3124 3123 3123 3122 3122 3121 3121 3120 3120 3119 3118 3118 3117
3166 3166 3165 3165 3165 3165 3164 3164 3164 3163 3163 3163 3162 3162 3162 3161 3161 3161 3160 3160 3160 3160 3159 3159 3159 3158 3158 3158 3157 3157 3157 3156 3156 3155 3155 3155 3154 3154 3153 3153 3153 3152 3152 3151 3151 3150 3150 3149 3149 3148 3148 3147 3146 3146 3145 3145 3144 3144 3143 3142 3142 3141 3140 3140 3139 3139 3138 3137 3137 3136 3135 3135 3134 3134 3133 3132 3132 3131 3130 3130 3129 3128 3128 3127 3126 3126 3125 3125 3124 3124 3123 3122 3122 3121 3121 3120 3120 3119 3119 3118 3117 3117 3116
3165 3165 3165 3165 3164 3164 3164 3164 3163 3163 3163 3163 3162 3162 3162 3161 3161 3161 3160 3160 3160 3160 3159 3159 3159 3158 3158 3158 3157 3157 3156 3156 3156 3155 3155 3155 3154 3154 3153 3153 3152 3152 3151 3151 3150 3150 3150 3149 3149 3148 3147 3147 3146 3145 3145 3144 3144 3143 3142 3142 3141 3140 3140 3139 3139 3138 3137 3137 3136 3135 3135 3134 3134 3133 3132 3132 3131 3130 3130 3129 3129 3128 3127 3126 3126 3125 3125 3124 3123 3123 3122 3121 3121 3120 3120 3119 3119 3118 3117 3117 3116 3115 3115
3165 3165 3165 3164 3164 3164 3163 3163 3163 3163 3163 3162 3162 3162 3161 3161 3161 3160 3160 3160 3160 3159 3159 3159 3158 3158 3158 3157 3157 3157 3156 3156 3155 3155 3155 3154 3154 3153 3153 3152 3152 3152 3151 3151 3150 3150 3149 3149 3148 3148 3147 3146 3146 3145 3145 3144 3143 3143 3142 3141 3141 3140 3140 3139 3138 3138 3137 3136 3136 3135 3135 3134 3133 3132 3132 3131 3130 3130 3129 3128 3128 3127 3126 3126 3125 3124 3124 3123 3122 3122 3121 3120 3120 3119 3119 3118 3118 3117 3116 3116 3115 3115 3114
3165 3165 3164 3164 3164 3163 3163 3163 3163 3162 3162 3162 3162 3162 3161 3161 3160 3160 3160 3160 3159 3159 3159 3159 3158 3158 3158 3157 3157 3156 3156 3155 3155 3155 3155 3154 3154 3153 3153 3152 3152 3151 3151 3150 3150 3150 3149 3148 3148 3147 3147 3146 3146 3145 3145 3144 3143 3142 3142 3141 3140 3140 3139 3139 3138 3137 3137 3136 3135 3135 3134 3133 3133 3132 3131 3130 3130 3129 3128 3128 3127 3126 3126 3125 3124 3124 3123 3122 3122 3121 3120 3120 3119 3118 3118 3117 3116 3116 3115 3115 3114 3113 3113
3165 3164 3164 3164 3163 3163 3163 3163 3162 3162 3162 3162 3161 3161 3161 3161 3160 3160 3160 3160 3159 3159 3159 3158 3158 3158 3157 3157 3157 3156 3156 3155 3155 3155 3154 3154 3153 3153 3152 3152 3151 3151 3150 3150 3150 3149 3149 3148 3148 3147 3147 3146 3145 3145 3144 3144 3143 3142 3142 3141 3140 3140 3139 3139 3138 3137 3136 3136 3135 3134 3134 3133 3132 3131 3131 3130 3129 3129 3128 3127 3126 3126 3125 3125 3124 3123 3122 3121 3121 3120 3120 3119 3118 3117 3117 3116 3115 3115 3114 3114 3113 3112 3111
3164 3164 3164 3163 3163 3163 3162 3162 3162 3162 3162 3161 3161 3161 3161 3160 3160 3160 3160 3159 3159 3159 3159 3158 3158 3158 3157 3157 3156 3156 3156 3155 3155 3154 3154 3153 3153 3153 3152 3152 3151 3151 3150 3150 3149 3149 3148 3148 3147 3147 3146 3146 3145 3145 3144 3144 3143 3142 3142 3141 3140 3140 3139 3138 3138 3137 3136 3135 3135 3134 3133 3133 3132 3131 3130 3130 3129 3128 3127 3127 3126 3125 3125 3124 3123 3122 3121 3121 3120 3119 3119 3118 3117 3117 3116 3115 3115 3114 3113 3112 3112 3111 3110
3164 3163 3163 3163 3163 3162 3162 3162 3162 3162 3161 3161 3161 3161 3160 3160 3160 3160 3159 3159 3159 3159 3158 3158 3158 3157 3157 3156 3156 3156 3155 3155 3155 3154 3154 3153 3153 3152 3152 3151 3151 3150 3150 3150 3149 3149 3148 3148 3147 3147 3146 3146 3145 3145 3144 3144 3143 3142 3141 3141 3140 3140 3139 3138 3137 3137 3136 3135 3135 3134 3133 3132 3131 3131 3130 3129 3128 3128 3127 3126 3125 3125 3124 3123 3122 3121 3121 3120 3119 3119 3118 3117 3116 3115 3115 3114 3113 3113 3112 3111 3110 3110 3109
3163 3163 3163 3163 3162 3162 3162 3162 3161 3161 3161 3161 3161 3160 3160 3160 3160 3160 3159 3159 3159 3158 3158 3158 3157 3157 3156 3156 3156 3155 3155 3155 3154 3154 3154 3153 3153 3152 3152 3151 3151 3150 3150 3150 3149 3148 3148 3147 3147 3146 3146 3145 3145 3145 3144 3143 3142 3142 3141 3140 3140 3139 3139 3138 3137 3136 3135 3135 3134 3133 3133 3132 3131 3130 3130 3129 3128 3127 3126 3125 3125 3124 3123 3122 3121 3120 3120 3119 3118 3118 3117 3116 3115 3115 3114 3113 3112 3111 3111 3110 3109 3108 3108
3163 3162 3162 3162 3162 3162 3162 3161 3161 3161 3161 3160 3160 3160 3160 3160 3159 3159 3159 3159 3158 3158 3158 3157 3157 3157 3156 3156 3155 3155 3155 3155 3154 3154 3153 3153 3152 3152 3151 3151 3151 3150 3150 3149 3149 3148 3148 3147 3147 3146 3146 3145 3145 3144 3144 3143 3142 3141 3141 3140 3139 3139 3138 3137 3136 3136 3135 3134 3134 3133 3132 3131 3130 3130 3129 3128 3127 3126 3125 3125 3124 3123 3122 3121 3120 3120 3119 3118 3117 3116 3116 3115 3114 3113 3112 3111 3111 3110 3109 3109 3108 3107 3106
3162 3162 3162 3162 3162 3161 3161 3161 3161 3161 3160 3160 3160 3160 3160 3159 3159 3159 3159 3158 3158 3158 3157 3157 3157 3156 3156 3155 3155 3155 3155 3154 3154 3153 3153 3153 3152 3152 3151 3151 3150 3150 3150 3149 3149 3148 3147 3147 3146 3146 3145 3145 3144 3144 3143 3142 3142 3141 3140 3139 3139 3138 3137 3136 3135 3135 3134 3133 3133 3132 3131 3130 3130 3129 3128 3127 3126 3125 3125 3124 3123 3122 3121 3120 3120 3119 3118 3117 3116 3115 3115 3114 3113 3112 3111 3110 3110 3109 3108 3107 3106 3105 3105
3162 3161 3161 3161 3161 3161 3161 3161 3160 3160 3160 3160 3160 3159 3159 3159 3159 3159 3158 3158 3158 3157 3157 3157 3156 3156 3156 3155 3155 3155 3154 3154 3153 3153 3153 3152 3152 3152 3151 3151 3150 3150 3149 3149 3148 3148 3147 3146 3146 3145 3145 3145 3144 3143 3143 3142 3141 3140 3140 3139 3138 3137 3136 3135 3135 3134 3133 3132 3132 3131 3130 3130 3129 3128 3127 3126 3125 3125 3124 3123 3122 3121 3120 3120 3119 3118 3117 3116 3115 3115 3114 3113 3112 3111 3110 3109 3108 3107 3107 3106 3105 3104 3103
3161 3161 3161 3161 3161 3161 3160 3160 3160 3160 3160 3160 3159 3159 3159 3159 3158 3158 3158 3158 3157 3157 3157 3157 3156 3156 3155 3155 3155 3154 3154 3154 3153 3153 3152 3152 3152 3151 3151 3150 3150 3149 3149 3148 3148 3147 3147 3146 3145 3145 3145 3144 3143 3143 3142 3141 3140 3140 3139 3138 3137 3136 3135 3135 3134 3133 3132 3132 3131 3130 3129 3129 3128 3127 3126 3125 3125 3124 3123 3122 3121 3120 3120 3119 3118 3117 3116 3115 3114 3114 3113 3112 3111 3110 3109 3108 3107 3106 3105 3105 3104 3103 3102
3161 3161 3160 3160 3160 3160 3160 3160 3160 3160 3159 3159 3159 3159 3158 3158 3158 3158 3158 3157 3157 3157 3157 3156 3156 3156 3155 3155 3155 3154 3154 3153 3153 3153 3152 3152 3151 3151 3150 3150 3150 3149 3148 3148 3147 3147 3146 3145 3145 3145 3144 3143 3143 3142 3141 3141 3140 3139 3138 3137 3136 3136 3135 3134 3133 3133 3132 3131 3130 3130 3129 3128 3127 3126 3125 3125 3124 3123 3122 3121 3120 3119 3118 3118 3117 3116 3115 3114 3113 3112 3112 3111 3110 3109 3108 3107 3106 3105 3104 3104 3103 3102 3101
3160 3160 3160 3160 3160 3160 3160 3160 3159 3159 3159 3159 3158 3158 3158 3158 3158 3157 3157 3157 3157 3157 3156 3156 3156 3155 3155 3155 3155 3154 3154 3153 3153 3152 3152 3152 3151 3151 3150 3150 3149 3148 3148 3147 3147 3146 3145 3145 3145 3144 3143 3143 3142 3141 3141 3140 3139 3138 3138 3137 3136 3135 3135 3134 3133 3132 3131 3130 3130 3129 3128 3127 3126 3125 3125 3124 3123 3122 3121 3120 3119 3118 3117 3116 3116 3115 3114 3113 3112 3111 3110 3110 3109 3108 3107 3106 3105 3104 3103 3102 3101 3100 3100
3160 3160 3160 3160 3160 3159 3159 3159 3159 3159 3158 3158 3158 3158 3158 3157 3157 3157 3157 3157 3156 3156 3156 3156 3155 3155 3155 3155 3154 3154 3153 3153 3153 3152 3152 3151 3151 3150 3150 3149 3149 3148 3147 3147 3146 3145 3145 3145 3144 3143 3143 3142 3141 3141 3140 3139 3139 3138 3137 3136 3135 3135 3134 3133 3133 3132 3131 3130 3129 3128 3127 3127 3126 3125 3124 3123 3122 3121 3120 3119 3118 3117 3116 3115 3115 3114 3113 3112 3111 3110 3109 3108 3107 3106 3105 3105 3103 3102 3101 3100 3100 3099 3098
3159 3159 3159 3159 3159 3159 3159 3158 3158 3158 3158 3158 3157 3157 3157 3157 3157 3156 3156 3156 3156 3156 3155 3155 3155 3155 3155 3154 3154 3153 3153 3152 3152 3152 3151 3151 3150 3150 3149 3149 3148 3147 3147 3146 3145 3145 3145 3144 3143 3143 3142 3141 3141 3140 3139 3139 3138 3137 3136 3135 3135 3134 3134 3133 3132 3131 3130 3130 3129 3128 3127 3126 3125 3124 3123 3122 3121 3120 3120 3119 3117 3116 3115 3115 3114 3113 3112 3111 3110 3109 3108 3107 3106 3105 3104 3103 3102 3101 3100 3099 3098 3097 3096
3159 3159 3159 3159 3158 3158 3158 3158 3158 3157 3157 3157 3157 3157 3157 3156 3156 3156 3156 3156 3155 3155 3155 3155 3155 3155 3154 3154 3153 3153 3152 3152 3151 3151 3150 3150 3150 3149 3149 3148 3147 3147 3146 3145 3145 3144 3144 3143 3143 3142 3141 3141 3140 3139 3139 3138 3137 3136 3135 3135 3134 3134 3133 3132 3131 3130 3130 3129 3128 3127 3126 3125 3125 3124 3123 3122 3121 3120 3119 3118 3117 3115 3115 3114 3113 3112 3111 3110 3109 3108 3107 3106 3105 3104 3103 3102 3100 3100 3098 3097 3096 3095 3094
3158 3158 3158 3158 3158 3158 3157 3157 3157 3157 3157 3156 3156 3156 3156 3156 3155 3155 3155 3155 3155 3155 3155 3154 3154 3154 3153 3153 3153 3152 3152 3151 3151 3150 3150 3150 3149 3149 3148 3147 3147 3146 3145 3145 3144 3144 3143 3142 3142 3141 3140 3140 3139 3138 3138 3137 3136 3135 3135 3134 3134 3133 3132 3131 3130 3130 3129 3128 3127 3126 3125 3125 3124 3123 3122 3121 3120 3119 3118 3117 3116 3115 3114 3113 3112 3110 3110 3109 3108 3106 3105 3105 3103 3102 3101 3100 3099 3098 3097 3096 3095 3094 3093
3158 3157 3157 3157 3157 3157 3157 3156 3156 3156 3156 3156 3156 3155 3155 3155 3155 3155 3155 3155 3154 3154 3154 3154 3153 3153 3153 3152 3152 3152 3151 3151 3150 3150 3149 3149 3148 3148 3147 3147 3146 3145 3145 3144 3144 3143 3142 3142 3141 3140 3140 3139 3138 3138 3137 3136 3135 3135 3134 3133 3133 3132 3131 3130 3130 3129 3128 3127 3126 3125 3125 3124 3123 3122 3121 3120 3119 3118 3117 3116 3115 3114 3113 3112 3110 3110 3109 3107 3106 3105 3104 3103 3102 3101 3100 3099 3098 3096 3095 3094 3093 3092 3091
3157 3157 3157 3157 3156 3156 3156 3156 3156 3155 3155 3155 3155 3155 3155 3155 3154 3154 3154 3154 3154 3153 3153 3153 3153 3152 3152 3152 3151 3151 3151 3150 3150 3149 3149 3148 3148 3147 3146 3146 3145 3145 3144 3143 3143 3142 3141 3141 3140 3140 3139 3138 3137 3137 3136 3135 3135 3134 3133 3132 3132 3131 3130 3129 3128 3128 3127 3126 3125 3124 3124 3123 3122 3121 3120 3119 3118 3117 3116 3115 3114 3113 3112 3110 3110 3108 3107 3106 3105 3104 3103 3102 3100 3100 3098 3097 3096 3095 3094 3093 3091 3090 3089
3156 3156 3156 3156 3156 3155 3155 3155 3155 3155 3155 3155 3155 3154 3154 3154 3154 3154 3153 3153 3153 3153 3152 3152 3152 3152 3151 3151 3151 3150 3150 3150 3149 3148 3148 3147 3147 3146 3146 3145 3145 3144 3143 3142 3142 3141 3140 3140 3139 3139 3138 3137 3136 3136 3135 3134 3134 3133 3132 3131 3130 3130 3129 3128 3127 3126 3125 3125 3124 3123 3122 3121 3120 3120 3119 3118 3117 3116 3115 3114 3113 3112 3110 3110 3108 3107 3106 3105 3104 3103 3101 3100 3099 3098 3097 3095 3095 3093 3092 3091 3090 3089 3087
3155 3155 3155 3155 3155 3155 3155 3155 3154 3154 3154 3154 3154 3154 3153 3153 3153 3153 3153 3152 3152 3152 3152 3151 3151 3151 3150 3150 3150 3150 3149 3149 3148 3148 3147 3146 3146 3145 3145 3144 3144 3143 3142 3142 3141 3140 3140 3139 3138 3138 3137 3136 3135 3135 3134 3133 3132 3132 3131 3130 3130 3129 3128 3127 3126 3125 3124 3123 3123 3122 3121 3120 3119 3118 3117 3116 3116 3115 3114 3113 3112 3110 3109 3108 3107 3106 3105 3104 3102 3101 3100 3099 3098 3096 3095 3094 3093 3091 3090 3089 3088 3087 3086
3155 3155 3155 3154 3154 3154 3154 3154 3154 3154 3153 3153 3153 3153 3153 3152 3152 3152 3152 3152 3151 3151 3151 3151 3150 3150 3150 3149 3149 3149 3148 3148 3147 3147 3146 3145 3145 3145 3144 3143 3143 3142 3141 3141 3140 3139 3139 3138 3137 3136 3136 3135 3134 3134 3133 3132 3131 3130 3130 3129 3128 3127 3126 3125 3125 3124 3123 3122 3121 3120 3119 3118 3118 3117 3116 3115 3114 3113 3112 3111 3110 3109 3108 3107 3105 3104 3103 3102 3101 3100 3099 3097 3096 3095 3093 3092 3091 3090 3089 3087 3086 3085 3084
3154 3154 3154 3154 3154 3153 3153 3153 3153 3153 3153 3152 3152 3152 3152 3152 3151 3151 3151 3151 3151 3150 3150 3150 3150 3149 3149 3148 3148 3148 3147 3147 3146 3146 3145 3145 3144 3143 3143 3142 3142 3141 3140 3140 3139 3138 3138 3137 3136 3135 3135 3134 3133 3132 3131 3131 3130 3129 3128 3128 3127 3126 3125 3124 3123 3122 3121 3120 3120 3119 3118 3117 3116 3115 3114 3113 3112 3112 3111 3110 3109 3107 3106 3105 3104 3102 3101 3100 3099 3098 3097 3095 3094 3093 3092 3090 3089 3088 3087 3085 3084 3083 3082
3153 3153 3153 3153 3153 3153 3152 3152 3152 3152 3152 3152 3151 3151 3151 3151 3151 3151 3150 3150 3150 3150 3149 3149 3149 3148 3148 3147 3147 3147 3146 3146 3145 3145 3144 3144 3143 3142 3142 3141 3140 3140 3140 3139 3138 3137 3137 3136 3135 3135 3134 3133 3132 3131 3130 3129 3129 3128 3127 3126 3125 3124 3124 3123 3122 3121 3120 3119 3118 3117 3116 3115 3114 3113 3112 3111 3111 3110 3109 3108 3107 3105 3104 3103 3102 3100 3099 3098 3097 3096 3095 3094 3092 3091 3090 3088 3087 3086 3085 3084 3082 3081 3080
3152 3152 3152 3152 3152 3152 3152 3151 3151 3151 3151 3151 3151 3150 3150 3150 3150 3150 3150 3150 3149 3149 3148 3148 3148 3147 3147 3146 3146 3146 3145 3145 3144 3144 3143 3143 3142 3141 3141 3140 3139 3139 3138 3138 3137 3136 3135 3135 3134 3133 3132 3131 3131 3130 3129 3128 3127 3126 3125 3125 3124 3123 3122 3121 3120 3119 3118 3117 3116 3115 3114 3113 3112 3111 3110 3110 3109 3108 3107 3106 3105 3104 3102 3101 3100 3099 3097 3096 3095 3094 3093 3091 3090 3089 3088 3086 3085 3084 3083 3081 3080 3079 3078
3151 3151 3151 3151 3151 3151 3151 3151 3151 3150 3150 3150 3150 3150 3150 3149 3149 3149 3149 3149 3148 3148 3148 3147 3147 3146 3146 3145 3145 3145 3144 3144 3143 3143 3142 3141 3141 3140 3140 3139 3138 3137 3137 3136 3135 3135 3134 3133 3133 3132 3131 3130 3129 3128 3127 3126 3125 3125 3124 3123 3122 3121 3120 3119 3118 3117 3116 3115 3114 3113 3112 3111 3110 3109 3108 3107 3106 3105 3105 3104 3103 3101 3100 3099 3098 3096 3095 3094 3093 3092 3090 3089 3088 3087 3086 3084 3083 3082 3081 3080 3078 3077 3076
3150 3150 3150 3150 3150 3150 3150 3150 3150 3150 3150 3149 3149 3149 3149 3149 3148 3148 3148 3148 3147 3147 3147 3146 3146 3145 3145 3145 3144 3144 3144 3143 3142 3141 3141 3140 3140 3139 3138 3137 3137 3136 3135 3135 3134 3134 3132 3132 3131 3130 3130 3129 3128 3127 3126 3125 3124 3123 3122 3121 3120 3119 3118 3117 3116 3115 3115 3113 3112 3111 3110 3109 3108 3107 3106 3105 3104 3103 3102 3101 3100 3099 3098 3097 3096 3095 3093 3092 3091 3090 3088 3087 3086 3085 3084 3082 3081 3080 3079 3077 3076 3075 3074
3150 3149 3149 3149 3149 3149 3149 3149 3149 3149 3149 3148 3148 3148 3148 3148 3148 3147 3147 3147 3147 3146 3146 3145 3145 3144 3144 3144 3143 3143 3143 3142 3141 3140 3140 3139 3139 3138 3137 3136 3135 3135 3134 3133 3132 3132 3131 3130 3130 3129 3128 3127 3126 3125 3125 3124 3123 3122 3121 3120 3119 3117 3116 3115 3114 3113 3112 3111 3110 3109 3108 3107 3106 3105 3104 3103 3101 3100 3100 3099 3098 3097 3096 3095 3094 3092 3091 3090 3089 3087 3086 3085 3084 3082 3081 3080 3079 3077 3076 3075 3074 3073 3071
3148 3148 3148 3148 3148 3148 3148 3148 3148 3148 3148 3148 3147 3147 3147 3147 3147 3146 3146 3146 3145 3145 3145 3144 3144 3143 3143 3143 3142 3142 3142 3141 3140 3139 3139 3138 3137 3137 3136 3135 3134 3133 3133 3132 3131 3130 3130 3128 3128 3127 3127 3126 3125 3124 3123 3122 3121 3120 3119 3118 3117 3116 3115 3113 3112 3111 3110 3109 3108 3107 3106 3105 3104 3102 3101 3100 3099 3098 3097 3096 3095 3094 3093 3092 3091 3090 3089 3088 3086 3085 3084 3083 3081 3080 3079 3077 3076 3075 3074 3073 3071 3070 3069
3147 3147 3147 3147 3147 3147 3147 3147 3147 3147 3147 3146 3146 3146 3146 3146 3145 3145 3145 3145 3144 3144 3144 3143 3143 3142 3142 3141 3141 3140 3140 3140 3139 3138 3137 3137 3136 3135 3134 3134 3133 3132 3131 3130 3129 3128 3128 3126 3125 3125 3125 3124 3123 3121 3121 3120 3120 3118 3117 3116 3115 3114 3113 3111 3110 3109 3108 3107 3105 3104 3103 3102 3101 3100 3099 3098 3096 3095 3094 3093 3092 3091 3091 3090 3089 3088 3087 3085 3084 3083 3082 3080 3079 3077 3076 3075 3074 3072 3071 3070 3069 3068 3066
3146 3146 3146 3146 3146 3146 3146 3146 3146 3146 3146 3145 3145 3145 3145 3145 3144 3144 3144 3143 3143 3143 3142 3142 3141 3141 3141 3140 3140 3139 3139 3138 3138 3137 3136 3135 3135 3134 3133 3132 3131 3130 3130 3129 3128 3127 3126 3125 3123 3122 3122 3121 3120 3119 3119 3118 3117 3116 3115 3114 3113 3112 3110 3109 3108 3107 3106 3105 3103 3102 3101 3100 3099 3098 3096 3095 3094 3093 3091 3090 3090 3089 3088 3087 3086 3085 3085 3083 3082 3080 3079 3078 3076 3075 3074 3072 3071 3070 3068 3067 3066 3065 3064
3145 3145 3145 3145 3145 3145 3145 3145 3145 3145 3145 3145 3144 3144 3144 3143 3143 3143 3142 3142 3142 3141 3141 3140 3140 3140 3140 3139 3139 3138 3137 3137 3136 3136 3135 3134 3133 3132 3131 3130 3129 3129 3128 3127 3126 3125 3124 3122 3121 3120 3120 3119 3118 3117 3116 3116 3115 3114 3113 3112 3111 3110 3108 3107 3106 3105 3104 3102 3101 3100 3098 3097 3096 3095 3094 3093 3091 3090 3089 3088 3087 3086 3085 3085 3084 3083 3082 3081 3079 3078 3077 3075 3074 3072 3071 3070 3068 3067 3065 3064 3063 3062 3061
3144 3144 3144 3144 3144 3144 3144 3144 3144 3144 3144 3144 3143 3143 3142 3142 3142 3141 3141 3141 3140 3140 3140 3139 3139 3139 3138 3138 3137 3136 3136 3135 3135 3135 3134 3133 3131 3130 3130 3129 3128 3127 3126 3125 3124 3123 3122 3121 3120 3119 3117 3117 3115 3114 3114 3113 3113 3112 3111 3110 3109 3108 3106 3105 3104 3102 3101 3100 3098 3097 3096 3095 3094 3092 3091 3090 3089 3088 3087 3085 3085 3084 3083 3082 3081 3080 3079 3078 3077 3075 3074 3073 3071 3070 3068 3067 3065 3064 3063 3061 3060 3059 3058
3143 3143 3143 3143 3142 3142 3142 3142 3142 3142 3142 3142 3142 3142 3141 3141 3140 3140 3140 3140 3140 3139 3139 3138 3138 3138 3137 3136 3135 3135 3134 3134 3133 3133 3132 3131 3130 3129 3128 3127 3126 3125 3124 3123 3122 3121 3120 3119 3118 3117 3115 3114 3114 3113 3111 3110 3109 3109 3108 3108 3107 3105 3104 3103 3101 3100 3099 3097 3096 3095 3093 3092 3091 3090 3089 3088 3087 3085 3084 3083 3082 3081 3080 3079 3078 3077 3077 3075 3074 3073 3072 3070 3069 3067 3065 3064 3062 3061 3060 3058 3057 3056 3055
3142 3142 3142 3141 3141 3141 3141 3141 3141 3141 3141 3141 3141 3140 3140 3140 3140 3139 3139 3139 3138 3138 3138 3137 3137 3136 3136 3135 3134 3133 3133 3132 3131 3130 3130 3130 3129 3127 3126 3125 3125 3124 3122 3121 3120 3120 3118 3117 3116 3115 3113 3111 3111 3111 3110 3108 3106 3105 3105 3104 3104 3103 3102 3100 3099 3098 3096 3095 3094 3092 3091 3090 3089 3088 3086 3085 3084 3083 3082 3081 3080 3078 3077 3076 3075 3075 3074 3073 3072 3070 3069 3067 3066 3064 3063 3061 3060 3058 3057 3055 3054 3053 3051
3140 3140 3140 3140 3140 3140 3140 3140 3140 3140 3140 3139 3139 3139 3139 3139 3138 3138 3137 3137 3137 3136 3136 3136 3135 3135 3134 3133 3133 3132 3131 3130 3129 3128 3128 3127 3127 3126 3125 3124 3123 3122 3121 3120 3119 3118 3117 3115 3114 3113 3111 3109 3108 3107 3107 3106 3105 3102 3101 3100 3100 3100 3099 3098 3097 3096 3094 3093 3091 3090 3088 3087 3086 3085 3084 3083 3082 3081 3080 3078 3077 3076 3075 3074 3073 3072 3071 3070 3069 3068 3066 3065 3063 3062 3060 3059 3057 3055 3054 3053 3051 3050 3049
3139 3139 3139 3139 3139 3139 3139 3139 3138 3138 3138 3138 3138 3138 3138 3137 3137 3136 3136 3136 3135 3135 3135 3135 3135 3134 3133 3132 3131 3130 3130 3129 3128 3127 3126 3125 3125 3124 3124 3123 3121 3120 3119 3118 3117 3116 3115 3114 3112 3111 3109 3108 3106 3104 3103 3104 3103 3101 3099 3097 3096 3096 3095 3095 3095 3093 3092 3090 3089 3087 3086 3085 3084 3082 3081 3080 3080 3079 3077 3076 3075 3073 3072 3071 3070 3069 3068 3067 3066 3065 3063 3062 3060 3059 3057 3056 3054 3053 3051 3050 3048 3047 3045